This demonstration page uses our WeatherBlox Daily Observations layout. Learn more.

Left ArrowRight Arrow

Hourly Observations for April 10, 2018

Temp ( °F °C ) Dew Point ( °F °C ) Humidity (%) Winds ( mph kmh ) Pressure ( in mb ) Visibility ( mi km ) Precip ( " mm )
12:53 am 00:53 Clear 62 16.7 53 11.7 73 73 Calm 29.96 1015 10 16 0.00 0.00
1:53 am 01:53 Clear 60 15.6 53 11.7 78 78 NNE 3 6 29.96 1015 10 16 0.00 0.00
2:53 am 02:53 Clear 59 15 53 11.7 81 81 Calm 29.94 1014 10 16 0.00 0.00
3:53 am 03:53 Clear 57 13.9 53 11.7 87 87 WNW 3 6 29.93 1014 10 16 0.00 0.00
4:53 am 04:53 Clear 58 14.4 53 11.7 84 84 NW 5 7 29.93 1014 10 16 0.00 0.00
5:53 am 05:53 Mostly Clear 58 14.4 53 11.7 84 84 Calm 29.94 1014 10 16 0.00 0.00
6:53 am 06:53 Sunny 58 14.4 53 11.7 84 84 NNW 3 6 29.94 1014 10 16 0.00 0.00
7:53 am 07:53 Mostly Cloudy 58 14.4 53 11.7 84 84 Calm 29.96 1015 10 16 0.00 0.00
8:53 am 08:53 Cloudy 60 15.6 54 12.2 80 80 ESE 6 9 29.98 1015 10 16 0.00 0.00
9:53 am 09:53 Cloudy with Light Rain 60 15.6 55 12.8 84 84 Calm 29.97 1015 10 16 0.00 0.03
10:53 am 10:53 Cloudy with Light Rain 60 15.6 57 13.9 90 90 Calm 30.00 1016 9 14 0.01 0.25
11:53 am 11:53 Cloudy with Light Rain 62 16.7 57 13.9 84 84 Calm 30.01 1016 10 16 0.00 0.03
12:53 pm 12:53 Mostly Sunny 64 17.8 53 11.7 68 68 SE 7 11 30.00 1016 10 16 0.01 0.25
1:53 pm 13:53 Mostly Cloudy 65 18.3 48 8.9 54 54 S 7 11 30.00 1016 10 16 0.00 0.00
2:53 pm 14:53 Mostly Sunny 68 20 45 7.2 44 44 SSE 12 19 29.98 1015 10 16 0.00 0.00
3:53 pm 15:53 Sunny 68 20 43 6.1 40 40 SSE 15 24 29.96 1015 10 16 0.00 0.00
4:53 pm 16:53 Sunny 68 20 46 7.8 45 45 S 12 19 29.95 1014 10 16 0.00 0.00
5:53 pm 17:53 Mostly Sunny 68 20 49 9.4 51 51 SSW 9 15 29.94 1014 10 16 0.00 0.00
6:53 pm 18:53 Cloudy 67 19.4 51 10.6 57 57 S 10 17 29.95 1014 10 16 0.00 0.00
7:53 pm 19:53 Mostly Cloudy 63 17.2 48 8.9 58 58 SW 6 9 29.97 1015 10 16 0.00 0.00
10:53 pm 22:53 Cloudy 62 16.7 43 6.1 50 50 WSW 9 15 30.01 1016 10 16 0.00 0.00
11:53 pm 23:53 Mostly Cloudy 59 15 41 5 51 51 WNW 5 7 30.01 1016 10 16 0.00 0.00

Powered by AerisWeather